ISS (ZARYA) 1 25544U 98067A 25351.05542497 .00007770 00000+0 14583-3 0 9996 2 25544 51.6309 121.1077 0003173 260.4156 99.6474 15.49629327543529 CSS (TIANHE) 1 48274U 21035A 25351.32618742 .00020139 00000+0 25118-3 0 9999 2 48274 41.4681 348.8601 0007759 70.4303 289.7373 15.59373916264747 ISS (NAUKA) 1 49044U 21066A 25351.05542497 .00007770 00000+0 14583-3 0 9992 2 49044 51.6309 121.1077 0003173 260.4156 99.6474 15.49629327230444 FREGAT DEB 1 49271U 11037PF 25349.97149260 .00003730 00000+0 85401-2 0 9998 2 49271 51.6469 189.8745 0862473 230.7116 121.4133 12.34468246202333 CSS (WENTIAN) 1 53239U 22085A 25351.32618742 .00020139 00000+0 25118-3 0 9992 2 53239 41.4681 348.8601 0007759 70.4303 289.7373 15.59373916173844 CSS (MENGTIAN) 1 54216U 22143A 25351.32618742 .00020139 00000+0 25118-3 0 9993 2 54216 41.4681 348.8601 0007759 70.4303 289.7373 15.59373916158641 SHENZHOU-20 (SZ-20) 1 63632U 25082A 25351.32618742 .00020139 00000+0 25118-3 0 9990 2 63632 41.4681 348.8601 0007759 70.4303 289.7373 15.59373916255304 PROGRESS-MS 31 1 64751U 25146A 25351.05542497 .00007770 00000+0 14583-3 0 9997 2 64751 51.6309 121.1077 0003173 260.4156 99.6474 15.49629327 6751 TIANZHOU-9 1 64786U 25149A 25351.32618742 .00020139 00000+0 25118-3 0 9995 2 64786 41.4681 348.8601 0007759 70.4303 289.7373 15.59373916255305 CREW DRAGON 11 1 65077U 25166A 25351.05542497 .00007770 00000+0 14583-3 0 9991 2 65077 51.6309 121.1077 0003173 260.4156 99.6474 15.49629327 2142 DRAGON CRS-33 1 65304U 25186A 25351.05542497 .00007770 00000+0 14583-3 0 9996 2 65304 51.6309 121.1077 0003173 260.4156 99.6474 15.49629327 110 PROGRESS-MS 32 1 65586U 25204A 25351.05542497 .00007770 00000+0 14583-3 0 9999 2 65586 51.6309 121.1077 0003173 260.4156 99.6474 15.49629327 279 CYGNUS NG-23 1 65616U 25208A 25351.05542497 .00007770 00000+0 14583-3 0 9997 2 65616 51.6309 121.1077 0003173 260.4156 99.6474 15.49629327 228 DRAGONFLY 1 65729U 98067XH 25350.55126142 .00155828 00000+0 10911-2 0 9992 2 65729 51.6242 116.2265 0007117 302.7560 57.2752 15.73199780 13768 1998-067XK 1 65731U 98067XK 25351.32823658 .00087081 00000+0 81078-3 0 9995 2 65731 51.6284 113.9366 0004756 276.4225 83.6229 15.66619236 13862 RSP-03 1 65732U 98067XL 25350.62394995 .00115729 00000+0 94839-3 0 9995 2 65732 51.6264 116.7219 0005622 277.2620 82.7738 15.69615447 13778 GHS-01 1 65733U 98067XM 25351.06594644 .00200259 00000+0 11964-2 0 9998 2 65733 51.6275 112.9208 0007797 309.7819 50.2494 15.76705040 13869 YOTSUBA-KULOVER 1 65941U 98067XN 25350.62095895 .00057497 00000+0 69920-3 0 9994 2 65941 51.6282 120.4613 0001459 292.1700 67.9139 15.59985033 10462 BOTAN 1 65942U 98067XP 25351.06499101 .00096733 00000+0 10066-2 0 9994 2 65942 51.6279 117.4271 0002832 275.6508 84.4163 15.63787081 10541 E-KAGAKU-1 1 65943U 98067XQ 25349.66009928 .00052357 00000+0 64091-3 0 9994 2 65943 51.6292 125.2990 0001636 221.4661 138.6208 15.59851021 10310 HRC MONOBLOCK CAMERA 1 66052U 98067XR 25351.34467509 .00030730 00000+0 46392-3 0 9992 2 66052 51.6293 118.5398 0002754 204.8669 155.2190 15.54464210 9559 HTV-X1 1 66174U 25241A 25351.05542497 .00007770 00000+0 14583-3 0 9994 2 66174 51.6309 121.1077 0003173 260.4156 99.6474 15.49629327 510 SZ-21 MODULE 1 66515U 25246C 25351.26873890 .00022864 00000+0 25031-3 0 9996 2 66515 41.4771 348.4140 0005990 284.3104 75.7070 15.62718015 5151 SHENZHOU-22 1 66645U 25272A 25351.32618742 .00020139 00000+0 25118-3 0 9998 2 66645 41.4681 348.8601 0007759 70.4303 289.7373 15.59373916263579 SOYUZ-MS 28 1 66664U 25275A 25351.05542497 .00007770 00000+0 14583-3 0 9995 2 66664 51.6309 121.1077 0003173 260.4156 99.6474 15.49629327 1289 1998-067XS 1 66906U 98067XS 25350.53155357 .00024501 00000+0 42417-3 0 9998 2 66906 51.6305 123.6106 0003271 220.1232 139.9515 15.50774437 2203 1998-067XT 1 66907U 98067XT 25350.84827712 .00057093 00000+0 93339-3 0 9995 2 66907 51.6300 121.9750 0004067 250.8278 109.2271 15.51965497 2252 1998-067XU 1 66908U 98067XU 25350.59015625 .00055516 00000+0 90602-3 0 9998 2 66908 51.6296 123.2512 0004240 248.5284 111.5254 15.52025730 2213 SILVERSAT 1 66909U 98067XV 25350.58949970 .00059105 00000+0 95917-3 0 9999 2 66909 51.6305 123.2468 0004075 249.7085 110.3467 15.52156791 2218 1998-067XW 1 66910U 98067XW 25351.36033433 .00051954 00000+0 84034-3 0 9998 2 66910 51.6301 119.3949 0004495 232.9871 127.0708 15.52302683 2338 1998-067XX 1 66911U 98067XX 25350.90813934 .00064419 00000+0 10270-2 0 9990 2 66911 51.6301 121.6250 0004334 233.1446 126.9147 15.52613586 2256 1998-067XY 1 66912U 98067XY 25350.65699465 .00044864 00000+0 74797-3 0 9991 2 66912 51.6299 122.9476 0004223 244.4597 115.5956 15.51521639 2210